sat.trackr.live / text

‹ back to catalog

ZHONGXING-2D

NORAD 43920 · 2019-001A

PAYLOAD ACTIVE UNKNOWN

§ Identity

Operator
Country
PRC
Launch date
2019-01-10
Launch site
XICLF
Launch vehicle
Mass (kg)
RCS (m²)

Purposes: comms

External: N2YO · Heavens-Above · Gunter

§ Orbital elements

Epoch: 2026-05-25T04:21:36.217152Z

Period
1,436.14 min
Inclination
0.0135°
Eccentricity
0.0000993
Mean motion
1.00268951 rev/d
Perigee alt
35,783.2 km
Apogee alt
35,791.6 km
Semi-major
42,165.5 km
B*
0.0000e+0
RAAN
307.9510°
Arg perigee
36.2769°
Mean anomaly
93.9249°
Rev number
5,384

§ Raw data

ZHONGXING-2D1 43920U 19001A   26145.18166918 -.00000339  00000+0  00000+0 0  99912 43920   0.0135 307.9510 0000993  36.2769  93.9249  1.00268951 53846

JSON: /api/v1/satellites/43920 · /tle

For live sub-satellite position, see the globe view (requires WebGL).

§ Visibility from observer

Set your observer location to see the next 7 days of passes ≥ 10°. The values pass through the URL so the page stays shareable.

No JS? Fill the form by hand. The geolocation button needs JavaScript.